Weather History for Crockett, TX

Change the Weather History Date:

Wednesday, February 27, 2013

  Actual Average (KLFK) Record (KLFK)
Temperature  
Mean Temperature 48 °F 56 °F  
Max Temperature 62 °F 67 °F 87 °F (1918)
Min Temperature 35 °F 44 °F 19 °F (2002)
Degree Days  
Heating Degree Days 16 10  
Month to date heating degree days 344  
Since 1 July heating degree days 1624  
Cooling Degree Days 0 1  
Month to date cooling degree days 3  
Year to date cooling degree days 11  
Moisture  
Dew Point 33 °F    
Average Humidity 62    
Maximum Humidity 100    
Minimum Humidity 31    
Precipitation  
Precipitation 0.00 in 0.12 in 1.66 in (1910)
Month to date precipitation 3.74  
Year to date precipitation 7.92  
Snow  
Snow 0.00 in - - ()
Month to date snowfall  
Since 1 July snowfall  
Snow Depth -    
Sea Level Pressure  
Sea Level Pressure 30.06 in    
Wind  
Wind Speed 3 mph (NW)    
Max Wind Speed 17 mph    
Max Gust Speed 26 mph    
Visibility 10 miles    
Events      
T = Trace of Precipitation, MM = Missing Value Source: NWS Daily Summary

Daily Weather History Graph

Daily Weather History Graph

Search for Another Location

Airport:

Trip Planner

Search our weather history database for the weather conditions in past years. The results will help you decide how hot, cold, wet, or windy it might be!

Date:

Astronomy

Feb. 27, 2013 Rise Set
Actual Time 6:50 AM CST 6:18 PM CST
Civil Twilight 6:25 AM CST 6:42 PM CST
Nautical Twilight 5:57 AM CST 7:11 PM CST
Astronomical Twilight 5:29 AM CST 7:39 PM CST
Moon 8:27 PM CST (2/27) 7:37 AM CST (2/27)
Length of Visible Light 12h 17m
Length of Day
11h 28m
Waning Gibbous, 96% of the Moon is Illuminated
Feb 27
Waning Gibbous
Mar 4
Last Quarter
Mar 11
New
Mar 19
First Quarter
Mar 27
Full

Hourly Weather History & Observations

Time (CST) Temp. Windchill Dew Point Humidity Pressure Visibility Wind Dir Wind Speed Gust Speed Precip Events Conditions
12:15 AM 37.4 °F - 37.4 °F 100% 29.96 in 10.0 mi Calm Calm - N/A   Clear
12:35 AM 37.4 °F - 35.6 °F 93% 29.96 in 10.0 mi Calm Calm - N/A   Clear
12:55 AM 37.4 °F - 35.6 °F 93% 29.96 in 10.0 mi Calm Calm - N/A   Clear
1:15 AM 37.4 °F - 35.6 °F 93% 29.97 in 10.0 mi Calm Calm - N/A   Clear
1:35 AM 37.4 °F - 35.6 °F 93% 29.95 in 10.0 mi Calm Calm - N/A   Clear
1:55 AM 39.2 °F - 35.6 °F 87% 29.95 in 10.0 mi Calm Calm - N/A   Clear
2:15 AM 37.4 °F - 35.6 °F 93% 29.95 in 10.0 mi Calm Calm - N/A   Clear
2:35 AM 37.4 °F - 35.6 °F 93% 29.94 in 10.0 mi Calm Calm - N/A   Clear
2:55 AM 37.4 °F - 35.6 °F 93% 29.93 in 10.0 mi Calm Calm - N/A   Clear
3:15 AM 37.4 °F - 35.6 °F 93% 29.94 in 10.0 mi Calm Calm - N/A   Clear
3:35 AM 37.4 °F - 35.6 °F 93% 29.94 in 10.0 mi Calm Calm - N/A   Clear
3:55 AM 37.4 °F - 35.6 °F 93% 29.94 in 10.0 mi Calm Calm - N/A   Clear
4:15 AM 37.4 °F - 35.6 °F 93% 29.93 in 10.0 mi Calm Calm - N/A   Clear
4:35 AM 35.6 °F - 35.6 °F 100% 29.94 in 10.0 mi Calm Calm - N/A   Clear
4:55 AM 37.4 °F - 35.6 °F 93% 29.94 in 10.0 mi Calm Calm - N/A   Clear
5:15 AM 37.4 °F - 35.6 °F 93% 29.95 in 10.0 mi Calm Calm - N/A   Clear
5:55 AM 35.6 °F - 33.8 °F 93% 29.96 in 10.0 mi Calm Calm - N/A   Clear
6:15 AM 35.6 °F - 33.8 °F 93% 29.97 in 10.0 mi Calm Calm - N/A   Clear
6:35 AM 35.6 °F - 33.8 °F 93% 29.98 in 10.0 mi Calm Calm - N/A   Clear
6:55 AM 35.6 °F - 33.8 °F 93% 29.99 in 10.0 mi Calm Calm - N/A   Clear
7:15 AM 35.6 °F - 33.8 °F 93% 29.99 in 10.0 mi Calm Calm - N/A   Clear
7:35 AM 37.4 °F - 35.6 °F 93% 29.99 in 10.0 mi Calm Calm - N/A   Clear
7:55 AM 44.6 °F 40.7 °F 39.2 °F 81% 29.99 in 10.0 mi SSE 6.9 mph - N/A   Clear
8:15 AM 46.4 °F - 39.2 °F 76% 30.01 in 10.0 mi Calm Calm - N/A   Clear
8:35 AM 48.2 °F - 39.2 °F 71% 30.02 in 10.0 mi South 3.5 mph - N/A   Clear
8:55 AM 51.8 °F - 42.8 °F 71% 30.02 in 10.0 mi South 4.6 mph - N/A   Clear
9:35 AM 55.4 °F - 42.8 °F 63% 30.04 in 10.0 mi WSW 16.1 mph - N/A   Clear
9:55 AM 55.4 °F - 41.0 °F 58% 30.05 in 10.0 mi WNW 15.0 mph 21.9 mph N/A   Clear
10:15 AM 55.4 °F - 39.2 °F 54% 30.05 in 10.0 mi WNW 13.8 mph 17.3 mph N/A   Clear
10:35 AM 55.4 °F - 39.2 °F 54% 30.06 in 10.0 mi WNW 11.5 mph - N/A   Clear
10:55 AM 57.2 °F - 39.2 °F 51% 30.07 in 10.0 mi NW 10.4 mph 17.3 mph N/A   Clear
11:15 AM 55.4 °F - 37.4 °F 51% 30.09 in 10.0 mi NNW 15.0 mph 20.7 mph N/A   Clear
11:35 AM 55.4 °F - 35.6 °F 47% 30.09 in 10.0 mi North 10.4 mph 20.7 mph N/A   Clear
11:55 AM 57.2 °F - 35.6 °F 44% 30.10 in 10.0 mi North 12.7 mph 23.0 mph N/A   Clear
12:15 PM 57.2 °F - 35.6 °F 44% 30.10 in 10.0 mi North 13.8 mph 26.5 mph N/A   Clear
12:35 PM 59.0 °F - 33.8 °F 39% 30.09 in 10.0 mi NNW 11.5 mph 21.9 mph N/A   Clear
12:55 PM 59.0 °F - 35.6 °F 42% 30.10 in 10.0 mi NNW 9.2 mph 18.4 mph N/A   Clear
1:15 PM 60.8 °F - 35.6 °F 39% 30.09 in 10.0 mi NW 9.2 mph 19.6 mph N/A   Clear
1:35 PM 60.8 °F - 33.8 °F 36% 30.09 in 10.0 mi NNW 10.4 mph 20.7 mph N/A   Clear
1:55 PM 60.8 °F - 33.8 °F 36% 30.09 in 10.0 mi WNW 11.5 mph 19.6 mph N/A   Clear
2:15 PM 62.6 °F - 33.8 °F 34% 30.09 in 10.0 mi NW 15.0 mph 23.0 mph N/A   Clear
2:35 PM 60.8 °F - 33.8 °F 36% 30.09 in 10.0 mi WNW 17.3 mph 24.2 mph N/A   Clear
2:55 PM 60.8 °F - 32.0 °F 34% 30.10 in 10.0 mi NW 12.7 mph 26.5 mph N/A   Clear
3:15 PM 60.8 °F - 32.0 °F 34% 30.10 in 10.0 mi NW 12.7 mph 20.7 mph N/A   Clear
3:35 PM 60.8 °F - 32.0 °F 34% 30.10 in 10.0 mi WNW 11.5 mph 19.6 mph N/A   Clear
3:55 PM 60.8 °F - 30.2 °F 31% 30.10 in 10.0 mi NNW 10.4 mph 18.4 mph N/A   Clear
4:15 PM 59.0 °F - 30.2 °F 34% 30.10 in 10.0 mi NW 13.8 mph 21.9 mph N/A   Clear
4:35 PM 59.0 °F - 30.2 °F 34% 30.10 in 10.0 mi NW 12.7 mph 19.6 mph N/A   Clear
4:55 PM 59.0 °F - 30.2 °F 34% 30.11 in 10.0 mi WNW 11.5 mph 17.3 mph N/A   Clear
5:15 PM 57.2 °F - 30.2 °F 36% 30.12 in 10.0 mi Calm Calm - N/A   Clear
5:35 PM 57.2 °F - 30.2 °F 36% 30.12 in 10.0 mi NW 10.4 mph - N/A   Clear
5:55 PM 55.4 °F - 28.4 °F 36% 30.12 in 10.0 mi NW 8.1 mph - N/A   Clear
6:15 PM 55.4 °F - 28.4 °F 36% 30.13 in 10.0 mi NW 4.6 mph - N/A   Clear
6:35 PM 53.6 °F - 26.6 °F 35% 30.14 in 10.0 mi NW 4.6 mph - N/A   Clear
6:55 PM 51.8 °F - 26.6 °F 38% 30.15 in 10.0 mi NW 4.6 mph - N/A   Clear
7:15 PM 51.8 °F - 26.6 °F 38% 30.15 in 10.0 mi NW 4.6 mph - N/A   Clear
7:35 PM 51.8 °F - 24.8 °F 35% 30.16 in 10.0 mi Calm Calm - N/A   Clear
7:55 PM 50.0 °F - 26.6 °F 40% 30.16 in 10.0 mi Calm Calm - N/A   Clear
8:15 PM 48.2 °F - 24.8 °F 40% 30.17 in 10.0 mi Calm Calm - N/A   Clear
8:55 PM 48.2 °F - 26.6 °F 43% 30.17 in 10.0 mi Calm Calm - N/A   Clear
9:15 PM 46.4 °F - 26.6 °F 46% 30.18 in 10.0 mi Calm Calm - N/A   Clear
9:35 PM 41.0 °F - 30.2 °F 65% 30.19 in 10.0 mi Calm Calm - N/A   Clear
9:55 PM 39.2 °F - 32.0 °F 75% 30.19 in 10.0 mi Calm Calm - N/A   Clear
10:15 PM 37.4 °F - 32.0 °F 81% 30.20 in 10.0 mi Calm Calm - N/A   Clear
10:35 PM 42.8 °F 41.1 °F 28.4 °F 57% 30.20 in 10.0 mi NW 3.5 mph - N/A   Clear
11:15 PM 44.6 °F 41.4 °F 28.4 °F 53% 30.20 in 10.0 mi NNW 5.8 mph - N/A   Clear
11:35 PM 44.6 °F - 26.6 °F 49% 30.20 in 10.0 mi Calm Calm - N/A   Clear
11:55 PM 42.8 °F - 26.6 °F 53% 30.21 in 10.0 mi Calm Calm - N/A   Clear